Change the Weather History Date:

Sunday, July 1, 2012

  Actual Average Record
Temperature  
Mean Temperature 65 °F -  
Max Temperature 77 °F 73 °F 89 °F (1975)
Min Temperature 53 °F 53 °F 35 °F (1960)
Growing Degree Days 15 (Base 50)    
Moisture  
Dew Point 59 °F    
Average Humidity 76    
Maximum Humidity 94    
Minimum Humidity 57    
Precipitation  
Precipitation 0.00 in - - ()
Sea Level Pressure  
Sea Level Pressure 29.94 in    
Wind  
Wind Speed 4 mph (South)    
Max Wind Speed 12 mph    
Max Gust Speed -    
Visibility 10 miles    
Events      
Averages and records for this station are not official NWS values.
T = Trace of Precipitation, MM = Missing Value Source: NWS Daily Summary

Daily Weather History Graph

Daily Weather History Graph

Search for Another Location

Airport or City:

Trip Planner

Search our weather history database for the weather conditions in past years. The results will help you decide how hot, cold, wet, or windy it might be!

Date:

Astronomy

Jul. 01, 2012 Rise Set
Actual Time 5:58 AM EDT 9:38 PM EDT
Civil Twilight 5:19 AM EDT 10:17 PM EDT
Nautical Twilight 4:28 AM EDT 11:08 PM EDT
Astronomical Twilight 3:18 AM EDT 12:17 AM EDT
Moon 7:39 PM EDT (7/1) 3:47 AM EDT (7/1)
Length of Visible Light 16h 57m
Length of Day
15h 40m
Waxing Gibbous, 94% of the Moon is Illuminated
Jul 1
Waxing Gibbous
Jul 3
Full
Jul 10
Last Quarter
Jul 19
New
Jul 26
First Quarter

Hourly Weather History & Observations

Time (EDT) Temp. Dew Point Humidity Pressure Visibility Wind Dir Wind Speed Gust Speed Precip Events Conditions
12:35 AM 60.8 °F 55.4 °F 82% 29.88 in 10.0 mi North 3.5 mph - N/A   Scattered Clouds
12:54 AM 60.8 °F 55.4 °F 82% 29.89 in 10.0 mi North 3.5 mph - N/A   Clear
1:15 AM 59.0 °F 55.4 °F 88% 29.88 in 10.0 mi North 4.6 mph - N/A   Clear
1:35 AM 59.0 °F 55.4 °F 88% 29.88 in 10.0 mi North 4.6 mph - N/A   Clear
2:15 AM 59.0 °F 53.6 °F 82% 29.88 in 10.0 mi North 3.5 mph - N/A   Clear
2:34 AM 57.2 °F 53.6 °F 88% 29.89 in 10.0 mi Calm Calm - N/A   Clear
3:15 AM 55.4 °F 53.6 °F 94% 29.89 in 10.0 mi North 3.5 mph - N/A   Clear
3:34 AM 57.2 °F 53.6 °F 88% 29.89 in 10.0 mi Calm Calm - N/A   Clear
3:55 AM 57.2 °F 53.6 °F 88% 29.89 in 10.0 mi Calm Calm - N/A   Clear
4:15 AM 55.4 °F 51.8 °F 88% 29.90 in 10.0 mi Calm Calm - N/A   Clear
4:34 AM 55.4 °F 53.6 °F 94% 29.89 in 10.0 mi Calm Calm - N/A   Clear
4:55 AM 55.4 °F 51.8 °F 88% 29.90 in 10.0 mi Calm Calm - N/A   Clear
5:15 AM 53.6 °F 51.8 °F 94% 29.91 in 10.0 mi Calm Calm - N/A   Clear
5:34 AM 53.6 °F 51.8 °F 94% 29.91 in 10.0 mi Calm Calm - N/A   Clear
6:14 AM 53.6 °F 51.8 °F 94% 29.92 in 10.0 mi Calm Calm - N/A   Clear
6:34 AM 53.6 °F 51.8 °F 94% 29.92 in 10.0 mi Calm Calm - N/A   Clear
6:55 AM 55.4 °F 51.8 °F 88% 29.92 in 10.0 mi Calm Calm - N/A   Clear
7:14 AM 57.2 °F 53.6 °F 88% 29.92 in 10.0 mi Calm Calm - N/A   Clear
7:34 AM 62.6 °F 59.0 °F 88% 29.93 in 10.0 mi Calm Calm - N/A   Clear
7:55 AM 66.2 °F 60.8 °F 83% 29.93 in 10.0 mi Calm Calm - N/A   Clear
8:14 AM 68.0 °F 60.8 °F 78% 29.94 in 10.0 mi Calm Calm - N/A   Clear
8:54 AM 71.6 °F 60.8 °F 69% 29.94 in 10.0 mi South 4.6 mph - N/A   Clear
9:15 AM 71.6 °F 59.0 °F 64% 29.95 in 10.0 mi South 3.5 mph - N/A   Clear
9:35 AM 71.6 °F 59.0 °F 64% 29.95 in 10.0 mi SSW 3.5 mph - N/A   Clear
9:54 AM 71.6 °F 59.0 °F 64% 29.96 in 10.0 mi SSW 6.9 mph - N/A   Clear
10:15 AM 71.6 °F 60.8 °F 69% 29.97 in 10.0 mi South 8.1 mph - N/A   Clear
10:35 AM 71.6 °F 60.8 °F 69% 29.97 in 10.0 mi South 8.1 mph - N/A   Clear
10:54 AM 71.6 °F 60.8 °F 69% 29.97 in 10.0 mi South 6.9 mph - N/A   Clear
11:15 AM 73.4 °F 60.8 °F 65% 29.97 in 10.0 mi South 6.9 mph - N/A   Clear
11:34 AM 75.2 °F 62.6 °F 65% 29.97 in 10.0 mi South 5.8 mph - N/A   Clear
12:15 PM 75.2 °F 60.8 °F 61% 29.97 in 10.0 mi South 6.9 mph - N/A   Clear
12:34 PM 75.2 °F 62.6 °F 65% 29.98 in 10.0 mi South 4.6 mph - N/A   Clear
1:14 PM 77.0 °F 62.6 °F 61% 29.98 in 10.0 mi South 8.1 mph - N/A   Clear
1:35 PM 75.2 °F 62.6 °F 65% 29.97 in 10.0 mi SSE 8.1 mph - N/A   Clear
1:54 PM 77.0 °F 62.6 °F 61% 29.97 in 10.0 mi SSE 6.9 mph - N/A   Scattered Clouds
2:14 PM 77.0 °F 62.6 °F 61% 29.97 in 10.0 mi South 8.1 mph - N/A   Scattered Clouds
2:35 PM 77.0 °F 62.6 °F 61% 29.97 in 10.0 mi South 8.1 mph - N/A   Scattered Clouds
2:54 PM 73.4 °F 62.6 °F 69% 29.97 in 10.0 mi South 8.1 mph - N/A   Mostly Cloudy
3:15 PM 73.4 °F 62.6 °F 69% 29.97 in 10.0 mi South 8.1 mph - N/A   Overcast
3:35 PM 75.2 °F 62.6 °F 65% 29.97 in 10.0 mi South 10.4 mph - N/A   Scattered Clouds
3:54 PM 75.2 °F 62.6 °F 65% 29.96 in 10.0 mi South 6.9 mph - N/A   Scattered Clouds
4:15 PM 77.0 °F 60.8 °F 57% 29.95 in 10.0 mi South 9.2 mph - N/A   Clear
4:35 PM 77.0 °F 62.6 °F 61% 29.95 in 10.0 mi SSW 11.5 mph - N/A   Clear
4:54 PM 75.2 °F 64.4 °F 69% 29.95 in 10.0 mi South 9.2 mph - N/A   Clear
5:15 PM 75.2 °F 64.4 °F 69% 29.95 in 10.0 mi South 10.4 mph - N/A   Scattered Clouds
5:34 PM 73.4 °F 64.4 °F 73% 29.96 in 10.0 mi South 10.4 mph - N/A   Scattered Clouds
5:54 PM 73.4 °F 64.4 °F 73% 29.95 in 10.0 mi South 9.2 mph - N/A   Scattered Clouds
6:15 PM 73.4 °F 64.4 °F 73% 29.95 in 10.0 mi South 6.9 mph - N/A   Scattered Clouds
6:34 PM 73.4 °F 62.6 °F 69% 29.95 in 10.0 mi South 6.9 mph - N/A   Scattered Clouds
6:54 PM 75.2 °F 62.6 °F 65% 29.94 in 10.0 mi SSW 11.5 mph - N/A   Clear
7:15 PM 75.2 °F 60.8 °F 61% 29.94 in 10.0 mi SSW 8.1 mph - N/A   Clear
7:34 PM 75.2 °F 62.6 °F 65% 29.94 in 10.0 mi SSW 6.9 mph - N/A   Clear
7:55 PM 73.4 °F 62.6 °F 69% 29.94 in 10.0 mi South 4.6 mph - N/A   Clear
8:14 PM 73.4 °F 62.6 °F 69% 29.94 in 10.0 mi SSW 3.5 mph - N/A   Clear
8:34 PM 71.6 °F 62.6 °F 73% 29.95 in 10.0 mi South 4.6 mph - N/A   Clear
8:55 PM 71.6 °F 62.6 °F 73% 29.95 in 10.0 mi Calm Calm - N/A   Clear
9:14 PM 69.8 °F 62.6 °F 78% 29.95 in 10.0 mi Calm Calm - N/A   Clear
9:35 PM 68.0 °F 62.6 °F 83% 29.95 in 10.0 mi Calm Calm - N/A   Clear
9:55 PM 66.2 °F 60.8 °F 83% 29.96 in 10.0 mi Calm Calm - N/A   Clear
10:14 PM 64.4 °F 60.8 °F 88% 29.96 in 10.0 mi Calm Calm - N/A   Clear
10:35 PM 64.4 °F 60.8 °F 88% 29.96 in 10.0 mi Calm Calm - N/A   Clear
10:55 PM 62.6 °F 60.8 °F 94% 29.97 in 10.0 mi SSW 4.6 mph - N/A   Clear
11:14 PM 66.2 °F 60.8 °F 83% 29.97 in 10.0 mi Calm Calm - N/A   Clear
11:35 PM 64.4 °F 59.0 °F 83% 29.96 in 10.0 mi Calm Calm - N/A   Clear
11:54 PM 62.6 °F 59.0 °F 88% 29.96 in 10.0 mi Calm Calm - N/A   Clear